Regional Weather Roundup
Issued by NWS Sioux Falls, SD

Home | Current Version | Previous Version | Graphics & Text | Print | Product List | Glossary Off
Versions: 1 2 3 4 5 6 7 8 9 10 11 12 13 14 15 16 17 18 19 20 21 22 23 24 25 26 27 28 29 30 31 32 33 34 35 36 37 38 39 40 41 42 43 44 45 46 47 48 49 50

000
ASUS43 KFSD 301710
RWRFSD

WEATHER ROUNDUP FOR SE SOUTH DAKOTA/SW MINNESOTA/NW IOWA
NATIONAL WEATHER SERVICE SIOUX FALLS SD
1200 PM CDT MON MAY 30 2016

NOTE: "FAIR" INDICATES FEW OR NO CLOUDS BELOW 12,000 FEET WITH NO
SIGNIFICANT WEATHER AND OR OBSTRUCTIONS TO VISIBILITY.


SDZ038>040-050-052>070-301800-
SOUTHEAST SOUTH DAKOTA

CITY           SKY/WX    TMP DP  RH WIND       PRES   REMARKS
BROOKINGS      SUNNY     76  58  53 S17       29.94F
CHAMBERLAIN    PTSUNNY   74  63  68 SE20G25   29.88F
HURON          PTSUNNY   74  57  55 S20G28    29.91S
MADISON        FAIR      73  55  53 S18G28    29.96F
MITCHELL       CLOUDY    74  60  61 S20       29.92F
SIOUX FALLS    PTSUNNY   75  58  55 S17       29.96F
WINNER         FAIR      74  58  57 S15       29.89F
YANKTON        PTSUNNY   77  55  47 S14       29.93F
$$

MNZ071-072-080-081-089-090-097-098-301800-
SOUTHWEST MINNESOTA

CITY           SKY/WX    TMP DP  RH WIND       PRES   REMARKS
FAIRMONT       SUNNY     75  52  43 SE14      29.99F
JACKSON        SUNNY     77  48  36 SE14      30.00F
LUVERNE        SUNNY     73  52  46 S14       29.99S
MARSHALL       SUNNY     79  53  40 S16       29.96F
MONTEVIDEO     MOSUNNY   79  55  44 SW12      29.98S
PIPESTONE      SUNNY     73  54  49 S14       29.99F
REDWOOD FALLS  MOSUNNY   78  50  37 S15       29.97F
TRACY          SUNNY     78  55  44 S10G20    29.98F
WINDOM         SUNNY     79  50  36 CALM      30.00F
WORTHINGTON    SUNNY     75  56  51 S14G21    30.00F
$$

IAZ001>003-012>014-020>022-031-032-NEZ013-014-SDZ071-301800-
NORTHWEST IOWA

CITY           SKY/WX    TMP DP  RH WIND       PRES   REMARKS
CHEROKEE       MOSUNNY   79  58  48 S12G17    29.98F
DENISON        SUNNY     81  59  47 S7G14     29.96F
ESTHERVILLE    SUNNY     75  57  53 SE15      29.99F
LE MARS        MOSUNNY   79  59  50 S10       29.97F
ORANGE CITY    CLOUDY    77  55  47 SE8       29.97F
SHELDON        MOSUNNY   77  57  50 SE17G24   29.98S
SIOUX CITY     SUNNY     81  60  48 S9        29.96F
SPENCER        MOSUNNY   77  55  46 SE15      29.99F
STORM LAKE     SUNNY     81  55  41 SE14G22   29.99F
$$

ABBREVIATIONS USED IN REMARKS
   TC - TEMPERATURE IN CELSIUS
  WCI - WIND CHILL INDEX
   HX - HEAT INDEX
  VSB - VISIBILITY




USA.gov is the U.S. government's official web portal to all federal, state and local government web resources and services.